Location: Bern�tre
(50.1974°N, 2.0915°E)
Time: 08:24:54
(UTC+00:00)

OBJECT-B - Pass Details

Date: 18 September 2020
Orbit: 421 x 433 km, 97.0° (Epoch: 09 October)

Event Time Altitude Azimuth Distance (km) Brightness Sun altitude
Exits shadow 20:34:37 27° 255° (WSW) 855 2.6 -24.3°
Maximum altitude 20:34:53 27° 265° (W) 848 2.7 -24.3°
Drops below altitude 10° 20:37:43 10° 325° (NW) 1,523 4.5 -24.7°
Sets 20:39:56 0° 338° (NNW) 2,396 5.5 -25.0°
